Погода в Липках

Россия / Республика Мордовия     54°25′36″N   45°07′17″E
темп.,
°C
ветер,
м/с
пор.,
м/с
влажн.,
%
обл.,
%
осадки,
мм/ч
давл.,
гПа
погр.,
м
13 мая, чт
чт1300:00+13юв3109079 0.0 1022202
03:00+12юв34922 0.0 102257
06:00+14в37880 0.0 1021203
09:00+19вюв7116668 0.1 1020719
12:00+21юв7126199 0.2 10191078
15:00+20ююв6117153 1.2 10171003
18:00+19ю6117793 1.1 1017720
21:00+16ю22905 1.1 101716
14 мая, пт
пт1400:00+14ю229391 0.0 101921
03:00+14юз1193100 0.0 101911
06:00+15ююв1190100 0.0 102055
09:00+19юв2277100 0.0 1020437
12:00+23ююв34614 0.0 10191174
15:00+25ю34525 0.0 10191550
18:00+23юв2468100 0.0 101776
21:00+19ююв3579100 0.0 101770
15 мая, сб
сб1500:00+17ююв378299 0.0 1017115
03:00+16ююв41278100 0.1 1016238
06:00+17ююв51568100 0.0 1016336
09:00+22ю7155479 0.0 1016599
12:00+25ю8144691 0.0 10161178
15:00+25ю71348100 0.0 10161399
18:00+23ю614561 0.0 1014521
21:00+18ююв4127014 0.0 1015205
16 мая, вс
вс1600:00+16ю4127230 0.0 1014222
03:00+14ююз35845 0.0 101574
06:00+16ююз238557 0.0 1016115
09:00+21ююз2370100 0.0 1016540
12:00+24юз356074 0.0 10151273
15:00+25юз5657100 0.1 10151623
18:00+22зюз3572100 1.3 1014172
21:00+18зсз338298 1.4 101552
17 мая, пн
пн1700:00+15с228596 0.8 101618
03:00+14в11845 0.8 101711
06:00+17в12775 0.0 101770
09:00+21всв226451 0.0 1017474
12:00+25вюв235434 0.0 1017989
15:00+27ююз34445 0.0 10161430
18:00+25зюз11605 0.0 101612
21:00+20юв22665 0.0 101711